Home > Weather > Le Mans > Past weeks

Flag for France Past Weather in Le Mans, Pays de la Loire, France — Yesterday and Last 2 Weeks

Now
68 °F

More clouds than sun.


Feels Like: 68 °F
Forecast: 57 / 70 °F
Wind: 9 mph from West

Location: Le Mans Airport

Current Time: Jun 29, 2016 at 8:10:34 PM

Latest Report: Jun 29, 2016 at 7:30 PM


Visibility: N/A

Pressure: 29.92 "Hg

Humidity: 56%

Dew Point: 52 °F

Location of Le MansLocation

Past Weather in Le Mans — Graph

°F

Le Mans Temperature Yesterday

Maximum temperature yesterday: 73 °F (at 3:30 PM)
Minimum temperature yesterday: 57 °F (at 4:30 AM)
Average temperature yesterday: 65 °F

High & Low Weather Summary for the Past Weeks

 TemperatureHumidityPressure
High84 °F (Jun 23, 2:00 PM)100% (Jun 15, 2:00 AM)30.33 "Hg (Jun 15, 2:00 AM)
Low50 °F (Jun 18, 4:30 AM)38% (Jun 25, 3:00 PM)29.50 "Hg (Jun 15, 1:30 AM)
Average64 °F76%30.02 "Hg
* Reported Jun 14 7:00 PM — Jun 29 7:00 PM, Le Mans, Weather by CustomWeather, © 2016

Note: Actual official high and low records may vary slightly from our data, if they occured in-between our weather recording intervals... More about our weather records

Advertising

Le Mans Weather History for the Previous 24 Hours

Scroll right to see more
 ConditionsComfort  
Time TempWeatherWind HumidityBarometerVisibility
7:00 PM
Wed, Jun 29
68 °FBroken clouds.9 mph56%29.92 "HgN/A
6:30 PM70 °FPassing clouds.9 mph53%29.92 "HgN/A
6:00 PM72 °FPassing clouds.12 mph50%29.92 "HgN/A
5:30 PM72 °FPassing clouds.10 mph47%29.92 "HgN/A
5:00 PM72 °FScattered clouds.12 mph47%29.92 "HgN/A
4:30 PM72 °FOvercast.12 mph47%29.95 "HgN/A
4:00 PM72 °FBroken clouds.10 mph50%29.95 "HgN/A
3:30 PM72 °FScattered clouds.10 mph47%29.95 "HgN/A
3:00 PM72 °FScattered clouds.13 mph50%29.95 "HgN/A
2:30 PM72 °FPartly sunny.12 mph47%29.95 "HgN/A
2:00 PM72 °FScattered clouds.13 mph50%29.95 "HgN/A
1:30 PM70 °FScattered clouds.12 mph53%29.98 "HgN/A
1:00 PM70 °FScattered clouds.8 mph53%29.98 "HgN/A
12:30 PM70 °FPassing clouds.9 mph57%29.98 "HgN/A
12:00 PM68 °FPassing clouds.8 mph60%29.98 "HgN/A
11:30 AM66 °FPartly sunny.5 mph64%29.98 "HgN/A
11:00 AM66 °FScattered clouds.6 mph60%30.01 "HgN/A
10:30 AM64 °FPartly sunny.6 mph64%30.01 "HgN/A
10:00 AM64 °FPartly sunny.5 mph68%30.01 "HgN/A
9:30 AM63 °FPassing clouds.5 mph68%30.01 "HgN/A
9:00 AM61 °FSunny.3 mph72%30.01 "Hg10 mi
8:30 AM61 °FPassing clouds.3 mph72%30.01 "HgN/A
8:00 AM61 °FPassing clouds.2 mph72%30.01 "HgN/A
7:30 AM59 °FPartly sunny.3 mph82%30.01 "HgN/A
7:00 AM59 °FPassing clouds.3 mph77%30.04 "HgN/A
6:30 AM57 °FPassing clouds.1 mph82%30.01 "HgN/A
6:00 AM57 °FPassing clouds.2 mph82%30.01 "HgN/A
5:30 AM59 °FPassing clouds.2 mph82%30.01 "HgN/A
5:00 AM59 °FPartly cloudy.3 mph82%30.01 "HgN/A
4:30 AM61 °FPassing clouds.5 mph88%30.01 "HgN/A
4:00 AM61 °FLow clouds.3 mph88%30.01 "HgN/A
3:30 AM61 °FPartly cloudy.3 mph88%30.01 "HgN/A
3:00 AM61 °FMostly cloudy.5 mph88%30.01 "HgN/A
2:30 AM61 °FMostly cloudy.3 mph88%30.01 "HgN/A
2:00 AM61 °FPartly cloudy.6 mph88%30.01 "HgN/A
1:30 AM63 °FMostly cloudy.7 mph77%30.01 "HgN/A
1:00 AM63 °FLight rain. Mostly cloudy.7 mph77%30.01 "HgN/A
12:30 AM64 °FMostly cloudy.8 mph73%30.01 "HgN/A
12:00 AM64 °FOvercast.8 mph73%30.01 "HgN/A
11:30 PM
Tue, Jun 28
64 °FOvercast.9 mph68%30.01 "HgN/A
11:00 PM64 °FOvercast.7 mph68%30.01 "HgN/A
10:30 PM66 °FPartly sunny.7 mph64%29.98 "HgN/A
10:00 PM66 °FScattered clouds.8 mph64%29.98 "HgN/A
9:30 PM68 °FPartly sunny.7 mph60%29.98 "HgN/A
9:00 PM68 °FPassing clouds.12 mph60%29.98 "HgN/A
8:30 PM70 °FPassing clouds.12 mph57%29.98 "HgN/A
8:00 PM72 °FPartly sunny.12 mph57%29.98 "HgN/A
Weather by CustomWeather, © 2016

See weather overviewHow to use our weather pages